Flag for Nepal Weather past 2 weeks in Kathmandu, Nepal

Now
82 °F

Light rain. Broken clouds.


Feels Like: 85 °F
Forecast: 66 / 82 °F
Wind: 8 mph from Northwest

Location: Kathmandu Airport

Current Time: Jul 22, 2014 at 3:34:46 PM

Latest Report: Jul 22, 2014 at 2:35 PM


Visibility: 5 mi

Pressure: 29.71 "Hg

Humidity: 62%

Dew point: 68 °F

Location of KathmanduLocation

Historic Weather in Kathmandu — Graph

°F

Kathmandu temperature yesterday

Maximum temperature yesterday: 84 °F (at 3:35 PM)
Minimum temperature yesterday: 70 °F (at 2:35 AM)
Average temperature yesterday: 75 °F

Past Weeks' High & Low Weather Summary

 TemperatureHumidityPressure
High86 °F (Jul 12, 1:35 PM)100% (Jul 11, 7:35 AM)29.89 "Hg (Jul 11, 7:35 AM)
Low68 °F (Jul 9, 4:35 AM)50% (Jul 21, 12:35 AM)29.62 "Hg (Jul 19, 4:35 PM)
Average75 °F78%29.77 "Hg
* Reported Jul 7 1:35 PM — Jul 22 1:35 PM, Kathmandu, Weather by CustomWeather, © 2014

Note: Actual official high and low records may vary slightly from our data, if they occured in-between our weather recording intervals... More about our weather records

Advertising

Kathmandu weather history for previous 24 hours

 ConditionsComfort  
Time TempWeatherWind HumidityBarometerVisibility
1:35 PM
Jul 22
82 °FBroken clouds.6 mph62%29.74 "Hg6 mi
12:35 PM82 °FScattered clouds.8 mph62%29.74 "HgN/A
11:35 AM82 °FBroken clouds.No wind62%29.77 "HgN/A
10:35 AM82 °FScattered clouds.No wind58%29.77 "HgN/A
9:35 AM81 °FScattered clouds.No wind62%29.77 "HgN/A
3:35 AM72 °FMostly cloudy.No wind94%29.74 "Hg4 mi
2:35 AM72 °FMostly cloudy.No wind94%29.74 "Hg4 mi
1:35 AM72 °FMostly cloudy.3 mph94%29.77 "Hg4 mi
12:35 AM72 °FMostly cloudy.No wind94%29.77 "Hg4 mi
11:35 PM
Jul 21
72 °FThunderstorms. Mostly cloudy.5 mph94%29.77 "Hg4 mi
10:35 PM72 °FThunderstorms. Mostly cloudy.6 mph94%29.77 "Hg4 mi
9:35 PM72 °FThunderstorms. Mostly cloudy.12 mph94%29.74 "Hg4 mi
8:35 PM73 °FLight rain. Mostly cloudy.6 mph94%29.74 "Hg5 mi
7:35 PM73 °FBroken clouds.3 mph94%29.71 "Hg5 mi
6:35 PM75 °FBroken clouds.3 mph94%29.68 "HgN/A
5:35 PM75 °FThunderstorms. Broken clouds.9 mph83%29.65 "Hg4 mi
4:35 PM82 °FRain. Scattered clouds.8 mph58%29.62 "Hg4 mi
3:35 PM84 °FScattered clouds.8 mph58%29.65 "HgN/A
Weather by CustomWeather, © 2014

See weather overviewHow to use our weather pages